| time (UTC) | temp F | wind direction | speed knots | gust knots | rain 1hr in | rain 24hr in | rain mn in | humidity % | barometer mb |
| 20260508004417 | 79 | 0.0 | 0.0 | 0.00 | 0.00 | 0.00 | 13 | 1013.0 | |
| 20260508003417 | 80 | 113 | 0.9 | 3.5 | 0.00 | 0.00 | 0.00 | 13 | 1013.3 |
| 20260508002437 | 80 | 0.0 | 0.0 | 0.00 | 0.00 | 0.00 | 13 | 1013.3 | |
| 20260508001417 | 80 | 158 | 3.5 | 4.3 | 0.00 | 0.00 | 0.00 | 13 | 1013.4 |
| 20260508000419 | 81 | 225 | 5.2 | 6.1 | 0.00 | 0.00 | 0.00 | 13 | 1013.4 |
| 20260507235417 | 81 | 135 | 3.5 | 7.0 | 0.00 | 0.00 | 0.00 | 14 | 1013.5 |
| 20260507234417 | 80 | 0.0 | 2.6 | 0.00 | 0.00 | 0.00 | 14 | 1013.7 | |
| 20260507233417 | 81 | 270 | 0.9 | 2.6 | 0.00 | 0.00 | 0.00 | 13 | 1014.0 |
| 20260507232417 | 81 | 293 | 0.9 | 3.5 | 0.00 | 0.00 | 0.00 | 13 | 1014.1 |
| 20260507231457 | 81 | 293 | 3.5 | 6.1 | 0.00 | 0.00 | 0.00 | 13 | 1014.3 |
| 20260507230417 | 81 | 0.0 | 0.0 | 0.00 | 0.00 | 0.00 | 14 | 1014.3 | |
| 20260507225417 | 81 | 248 | 1.7 | 5.2 | 0.00 | 0.00 | 0.00 | 15 | 1014.4 |
| 20260507224417 | 81 | 0.0 | 0.0 | 0.00 | 0.00 | 0.00 | 15 | 1014.8 | |
| 20260507223417 | 80 | 0.0 | 0.0 | 0.00 | 0.00 | 0.00 | 15 | 1014.7 | |
| 20260507222417 | 80 | 158 | 6.1 | 8.7 | 0.00 | 0.00 | 0.00 | 15 | 1014.8 |
| 20260507221437 | 81 | 158 | 5.2 | 7.0 | 0.00 | 0.00 | 0.00 | 14 | 1014.8 |
| 20260507220415 | 80 | 0.0 | 0.0 | 0.00 | 0.00 | 0.00 | 14 | 1014.9 | |
| 20260507215417 | 80 | 180 | 2.6 | 4.3 | 0.00 | 0.00 | 0.00 | 15 | 1015.1 |
| 20260507214417 | 80 | 135 | 3.5 | 4.3 | 0.00 | 0.00 | 0.00 | 15 | 1015.4 |
| 20260507213417 | 80 | 135 | 5.2 | 8.7 | 0.00 | 0.00 | 0.00 | 15 | 1015.6 |
| 20260507212417 | 79 | 225 | 4.3 | 10.4 | 0.00 | 0.00 | 0.00 | 15 | 1015.4 |
| 20260507211417 | 80 | 0.0 | 0.9 | 0.00 | 0.00 | 0.00 | 15 | 1015.5 | |
| 20260507210417 | 79 | 135 | 5.2 | 6.1 | 0.00 | 0.00 | 0.00 | 15 | 1015.3 |
| 20260507205417 | 79 | 135 | 5.2 | 7.8 | 0.00 | 0.00 | 0.00 | 16 | 1015.5 |
| 20260507204417 | 79 | 113 | 3.5 | 6.1 | 0.00 | 0.00 | 0.00 | 17 | 1015.9 |
| 20260507203437 | 78 | 158 | 3.5 | 7.0 | 0.00 | 0.00 | 0.00 | 17 | 1015.7 |
| 20260507202417 | 78 | 135 | 5.2 | 7.8 | 0.00 | 0.00 | 0.00 | 17 | 1015.9 |
| 20260507201417 | 79 | 0.0 | 0.9 | 0.00 | 0.00 | 0.00 | 17 | 1016.7 | |
| 20260507200417 | 77 | 113 | 1.7 | 3.5 | 0.00 | 0.00 | 0.00 | 18 | 1016.6 |
| 20260507195417 | 77 | 135 | 4.3 | 6.1 | 0.00 | 0.00 | 0.00 | 18 | 1016.9 |
| 20260507194417 | 78 | 158 | 6.1 | 7.8 | 0.00 | 0.00 | 0.00 | 18 | 1017.3 |
| 20260507193417 | 76 | 113 | 2.6 | 4.3 | 0.00 | 0.00 | 0.00 | 20 | 1017.3 |
| 20260507192417 | 76 | 113 | 6.1 | 8.7 | 0.00 | 0.00 | 0.00 | 21 | 1017.4 |
| 20260507191417 | 76 | 158 | 7.0 | 8.7 | 0.00 | 0.00 | 0.00 | 20 | 1017.6 |
| 20260507190437 | 75 | 135 | 6.1 | 9.6 | 0.00 | 0.00 | 0.00 | 20 | 1017.4 |
| 20260507185417 | 75 | 158 | 6.1 | 8.7 | 0.00 | 0.00 | 0.00 | 20 | 1017.5 |
| 20260507184417 | 75 | 135 | 7.0 | 10.4 | 0.00 | 0.00 | 0.00 | 21 | 1017.9 |
| 20260507183417 | 76 | 90 | 5.2 | 7.0 | 0.00 | 0.00 | 0.00 | 22 | 1018.1 |
| 20260507182417 | 76 | 135 | 3.5 | 6.1 | 0.00 | 0.00 | 0.00 | 21 | 1018.2 |
| 20260507181417 | 76 | 0 | 1.7 | 4.3 | 0.00 | 0.00 | 0.00 | 22 | 1018.3 |
| 20260507180417 | 75 | 90 | 1.7 | 4.3 | 0.00 | 0.00 | 0.00 | 20 | 1018.3 |
| 20260507175417 | 73 | 90 | 2.6 | 5.2 | 0.00 | 0.00 | 0.00 | 23 | 1018.2 |
| 20260507174437 | 74 | 0.0 | 3.5 | 0.00 | 0.00 | 0.00 | 23 | 1018.7 | |
| 20260507173417 | 73 | 158 | 2.6 | 3.5 | 0.00 | 0.00 | 0.00 | 24 | 1018.8 |
| 20260507172417 | 71 | 135 | 5.2 | 10.4 | 0.00 | 0.00 | 0.00 | 23 | 1018.6 |
| 20260507171437 | 71 | 113 | 5.2 | 8.7 | 0.00 | 0.00 | 0.00 | 23 | 1018.6 |
| 20260507170437 | 72 | 113 | 2.6 | 4.3 | 0.00 | 0.00 | 0.00 | 23 | 1018.8 |
| 20260507165417 | 71 | 90 | 2.6 | 5.2 | 0.00 | 0.00 | 0.00 | 23 | 1018.9 |
| 20260507164417 | 71 | 113 | 0.9 | 1.7 | 0.00 | 0.00 | 0.00 | 23 | 1019.0 |
| 20260507163417 | 70 | 90 | 4.3 | 7.0 | 0.00 | 0.00 | 0.00 | 25 | 1018.8 |
| 20260507162417 | 69 | 90 | 3.5 | 5.2 | 0.00 | 0.00 | 0.00 | 26 | 1019.0 |
| 20260507161417 | 68 | 158 | 3.5 | 6.1 | 0.00 | 0.00 | 0.00 | 26 | 1019.1 |
| 20260507160517 | 68 | 135 | 2.6 | 5.2 | 0.00 | 0.00 | 0.00 | 26 | 1019.1 |
| 20260507155417 | 68 | 113 | 3.5 | 6.1 | 0.00 | 0.00 | 0.00 | 26 | 1019.2 |
| 20260507154417 | 68 | 135 | 3.5 | 5.2 | 0.00 | 0.00 | 0.00 | 26 | 1019.2 |
| 20260507153437 | 67 | 0.0 | 0.0 | 0.00 | 0.00 | 0.00 | 25 | 1019.2 | |
| 20260507152417 | 67 | 0.0 | 0.9 | 0.00 | 0.00 | 0.00 | 25 | 1019.3 | |
| 20260507151417 | 66 | 0.0 | 0.0 | 0.00 | 0.00 | 0.00 | 26 | 1019.3 | |
| 20260507150417 | 64 | 0.0 | 0.0 | 0.00 | 0.00 | 0.00 | 28 | 1018.7 | |
| 20260507145417 | 63 | 315 | 1.7 | 3.5 | 0.00 | 0.00 | 0.00 | 27 | 1018.8 |
| 20260507144417 | 63 | 0.0 | 0.0 | 0.00 | 0.00 | 0.00 | 26 | 1019.1 | |
| 20260507143417 | 62 | 0.0 | 0.0 | 0.00 | 0.00 | 0.00 | 25 | 1019.0 | |
| 20260507142417 | 63 | 0.0 | 1.7 | 0.00 | 0.00 | 0.00 | 25 | 1019.1 | |
| 20260507141417 | 62 | 0.0 | 0.0 | 0.00 | 0.00 | 0.00 | 26 | 1019.4 | |
| 20260507140417 | 61 | 0.0 | 0.9 | 0.00 | 0.00 | 0.00 | 27 | 1019.0 | |
| 20260507135437 | 59 | 0.0 | 0.0 | 0.00 | 0.00 | 0.00 | 27 | 1018.8 | |
| 20260507134437 | 60 | 0.0 | 0.0 | 0.00 | 0.00 | 0.00 | 27 | 1019.2 | |
| 20260507133417 | 57 | 0.0 | 0.0 | 0.00 | 0.00 | 0.00 | 28 | 1018.8 | |
| 20260507132417 | 56 | 0.0 | 0.0 | 0.00 | 0.00 | 0.00 | 28 | 1018.4 | |
| 20260507131417 | 54 | 0.0 | 0.0 | 0.00 | 0.00 | 0.00 | 30 | 1018.3 | |
| 20260507130457 | 55 | 0.0 | 0.0 | 0.00 | 0.00 | 0.00 | 28 | 1018.3 | |
| 20260507125417 | 55 | 0.0 | 0.0 | 0.00 | 0.00 | 0.00 | 27 | 1018.1 | |
| 20260507124417 | 56 | 0.0 | 0.0 | 0.00 | 0.00 | 0.00 | 27 | 1018.2 | |
| 20260507123418 | 56 | 0.0 | 0.0 | 0.00 | 0.00 | 0.00 | 25 | 1018.0 | |
| 20260507122417 | 56 | 0.0 | 0.0 | 0.00 | 0.00 | 0.00 | 25 | 1018.1 | |
| 20260507121417 | 57 | 113 | 0.9 | 1.7 | 0.00 | 0.00 | 0.00 | 24 | 1018.2 |
| 20260507120417 | 57 | 135 | 2.6 | 3.5 | 0.00 | 0.00 | 0.00 | 25 | 1018.1 |
| 20260507115417 | 57 | 135 | 0.9 | 2.6 | 0.00 | 0.00 | 0.00 | 25 | 1018.0 |
| 20260507114417 | 57 | 158 | 0.9 | 1.7 | 0.00 | 0.00 | 0.00 | 24 | 1017.9 |
| 20260507113417 | 57 | 0.0 | 0.0 | 0.00 | 0.00 | 0.00 | 25 | 1017.5 | |
| 20260507112457 | 57 | 90 | 1.7 | 2.6 | 0.00 | 0.00 | 0.00 | 25 | 1017.9 |
| 20260507111417 | 56 | 0.0 | 0.0 | 0.00 | 0.00 | 0.00 | 25 | 1017.7 | |
| 20260507110417 | 57 | 0.0 | 0.0 | 0.00 | 0.00 | 0.00 | 24 | 1017.7 | |
| 20260507105417 | 58 | 0.0 | 0.0 | 0.00 | 0.00 | 0.00 | 23 | 1018.0 | |
| 20260507104417 | 58 | 338 | 0.9 | 1.7 | 0.00 | 0.00 | 0.00 | 23 | 1017.7 |
| 20260507103437 | 59 | 68 | 0.9 | 1.7 | 0.00 | 0.00 | 0.00 | 22 | 1018.0 |
| 20260507102417 | 59 | 0.0 | 0.0 | 0.00 | 0.00 | 0.00 | 22 | 1018.0 | |
| 20260507101417 | 58 | 0.0 | 0.0 | 0.00 | 0.00 | 0.00 | 22 | 1017.7 | |
| 20260507100437 | 57 | 203 | 0.9 | 1.7 | 0.00 | 0.00 | 0.00 | 26 | 1017.4 |
| 20260507095457 | 58 | 0.0 | 0.0 | 0.00 | 0.00 | 0.00 | 24 | 1017.4 | |
| 20260507094417 | 59 | 0.0 | 0.0 | 0.00 | 0.00 | 0.00 | 24 | 1017.8 | |
| 20260507093417 | 59 | 68 | 1.7 | 2.6 | 0.00 | 0.00 | 0.00 | 23 | 1017.6 |
| 20260507092417 | 60 | 0.0 | 0.0 | 0.00 | 0.00 | 0.00 | 22 | 1017.7 | |
| 20260507091416 | 58 | 0.0 | 0.0 | 0.00 | 0.00 | 0.00 | 24 | 1017.5 | |
| 20260507090417 | 57 | 0.0 | 0.0 | 0.00 | 0.00 | 0.00 | 24 | 1017.4 | |
| 20260507085417 | 58 | 0.0 | 0.0 | 0.00 | 0.00 | 0.00 | 23 | 1017.5 | |
| 20260507084417 | 59 | 0.0 | 0.0 | 0.00 | 0.00 | 0.00 | 22 | 1017.5 | |
| 20260507083436 | 59 | 0.0 | 0.0 | 0.00 | 0.00 | 0.00 | 22 | 1017.5 | |
| 20260507082416 | 59 | 0.0 | 0.0 | 0.00 | 0.00 | 0.00 | 22 | 1017.6 | |
| 20260507081417 | 60 | 0.0 | 0.0 | 0.00 | 0.00 | 0.00 | 21 | 1017.6 | |
| 20260507080416 | 62 | 0.0 | 0.0 | 0.00 | 0.00 | 0.00 | 20 | 1018.0 | |
| 20260507075417 | 62 | 0.0 | 0.0 | 0.00 | 0.00 | 0.00 | 19 | 1017.9 | |
| 20260507074437 | 62 | 0.0 | 0.0 | 0.00 | 0.00 | 0.00 | 19 | 1018.0 | |
| 20260507073417 | 63 | 45 | 1.7 | 2.6 | 0.00 | 0.00 | 0.00 | 18 | 1018.3 |
| 20260507072416 | 63 | 23 | 0.9 | 2.6 | 0.00 | 0.00 | 0.00 | 18 | 1018.4 |
| 20260507071417 | 63 | 23 | 0.9 | 2.6 | 0.00 | 0.00 | 0.00 | 18 | 1018.1 |
| 20260507070437 | 63 | 45 | 2.6 | 2.6 | 0.00 | 0.00 | 0.00 | 17 | 1018.1 |
| 20260507065416 | 62 | 23 | 1.7 | 3.5 | 0.00 | 0.00 | 0.00 | 17 | 1018.0 |
| 20260507064416 | 62 | 0.0 | 0.0 | 0.00 | 0.00 | 0.00 | 16 | 1017.9 | |
| 20260507063436 | 63 | 0.0 | 0.0 | 0.00 | 0.00 | 0.00 | 16 | 1017.9 | |
| 20260507062416 | 63 | 0.0 | 0.0 | 0.00 | 0.00 | 0.00 | 16 | 1017.9 | |
| 20260507061417 | 64 | 0.0 | 0.0 | 0.00 | 0.00 | 0.00 | 15 | 1018.0 | |
| 20260507060417 | 64 | 23 | 0.9 | 3.5 | 0.00 | 0.00 | 0.00 | 15 | 1017.7 |
| 20260507055417 | 64 | 45 | 1.7 | 2.6 | 0.00 | 0.00 | 0.00 | 16 | 1017.6 |
| 20260507054417 | 64 | 0.0 | 0.0 | 0.00 | 0.00 | 0.00 | 16 | 1017.2 | |
| 20260507053417 | 65 | 0 | 1.7 | 2.6 | 0.00 | 0.00 | 0.00 | 15 | 1017.6 |
| 20260507052417 | 65 | 0.0 | 0.0 | 0.00 | 0.00 | 0.00 | 15 | 1017.5 | |
| 20260507051417 | 65 | 0.0 | 0.0 | 0.00 | 0.00 | 0.00 | 15 | 1016.8 | |
| 20260507050417 | 65 | 0.0 | 0.0 | 0.00 | 0.00 | 0.00 | 15 | 1017.0 | |
| 20260507045417 | 65 | 0.0 | 0.0 | 0.00 | 0.00 | 0.00 | 15 | 1016.9 | |
| 20260507044417 | 65 | 0.0 | 0.0 | 0.00 | 0.00 | 0.00 | 16 | 1016.8 | |
| 20260507043417 | 65 | 0.0 | 0.0 | 0.00 | 0.00 | 0.00 | 16 | 1016.8 | |
| 20260507042437 | 66 | 0.0 | 0.0 | 0.00 | 0.00 | 0.00 | 16 | 1016.7 | |
| 20260507041417 | 66 | 0.0 | 0.9 | 0.00 | 0.00 | 0.00 | 16 | 1016.6 | |
| 20260507040457 | 66 | 0.0 | 0.0 | 0.00 | 0.00 | 0.00 | 17 | 1016.5 | |
| 20260507035417 | 66 | 23 | 2.6 | 4.3 | 0.00 | 0.00 | 0.00 | 17 | 1016.4 |
| 20260507034417 | 67 | 0.0 | 0.0 | 0.00 | 0.00 | 0.00 | 17 | 1016.4 | |
| 20260507033417 | 67 | 0.0 | 0.0 | 0.00 | 0.00 | 0.00 | 18 | 1016.2 | |
| 20260507032417 | 67 | 0.0 | 0.0 | 0.00 | 0.00 | 0.00 | 18 | 1016.1 | |
| 20260507031417 | 68 | 0.0 | 0.0 | 0.00 | 0.00 | 0.00 | 18 | 1015.7 | |
| 20260507030417 | 68 | 45 | 0.9 | 3.5 | 0.00 | 0.00 | 0.00 | 18 | 1015.9 |
| 20260507025417 | 68 | 0.0 | 0.0 | 0.00 | 0.00 | 0.00 | 18 | 1015.7 | |
| 20260507024417 | 69 | 0.0 | 0.0 | 0.00 | 0.00 | 0.00 | 18 | 1015.4 | |
| 20260507023437 | 69 | 0.0 | 0.0 | 0.00 | 0.00 | 0.00 | 17 | 1015.3 | |
| 20260507022437 | 70 | 0.0 | 2.6 | 0.00 | 0.00 | 0.00 | 17 | 1015.2 | |
| 20260507021417 | 71 | 315 | 0.9 | 2.6 | 0.00 | 0.00 | 0.00 | 17 | 1015.0 |
| 20260507020416 | 71 | 315 | 2.6 | 3.5 | 0.00 | 0.00 | 0.00 | 17 | 1014.9 |
| 20260507015417 | 72 | 0.0 | 0.0 | 0.00 | 0.00 | 0.00 | 17 | 1014.8 | |
| 20260507014417 | 72 | 315 | 3.5 | 5.2 | 0.00 | 0.00 | 0.00 | 17 | 1014.3 |
| 20260507013417 | 73 | 315 | 2.6 | 5.2 | 0.00 | 0.00 | 0.00 | 16 | 1014.6 |
| 20260507012417 | 73 | 293 | 4.3 | 7.0 | 0.00 | 0.00 | 0.00 | 16 | 1014.6 |
| 20260507011437 | 74 | 315 | 7.8 | 9.6 | 0.00 | 0.00 | 0.00 | 16 | 1014.1 |
| 20260507010417 | 75 | 315 | 1.7 | 2.6 | 0.00 | 0.00 | 0.00 | 16 | 1014.4 |
| 20260507005417 | 74 | 293 | 3.5 | 6.1 | 0.00 | 0.00 | 0.00 | 16 | 1014.0 |